Find Starlink 33767

NORAD ID: 63722 Int'l Des: 2025-087 Owner: SPXS Country: US Constellation: starlink operational
LEOCIRCULAR

現在のビュー

3D地球を読み込み中...

About Starlink 33767

Starlink 33767 (NORAD 63722) is a starlink constellation satellite (v2 mini) launched Apr 28, 2025 by SPXS of US. It operates in LEO, CIRCULAR orbit with a mass of 575.00 kg.

Starlink 33767について

説明を読み込み中...

次回通過

Passes for default location (London). Set your location on the main map for personalized predictions.

高度履歴

Loading altitude history...

軌道要素

1 63722U 25087AB 26194.76237949 .00007718 00000-0 27233-3 0 9994
2 63722 53.1617 353.8341 0000446 71.1700 288.9349 15.30210771 68501
Epoch: Jul 13, 2026 • Age: 13 hours

現在のステータス

高度 478.6 km
遠地点 / 近地点 N/A
速度 7.63 km/s
衛星直下点 40.02°N, 89.56°E
打ち上げ日 Apr 28, 2025
運用期間 1.2 years
タイプ internet

技術仕様

分類 Payload
質量 575.00 kg
乾燥質量 530.00 kg
総質量 575.00 kg
長さ 0.30 m
直径 4.10 m
スパン 29.00 m
形状 Box + pan
製造者 SPXS
バスタイプ Starlink V2MO
フェーズステータス In Orbit
所有者/国 SPXS/US

Most Searched